QPF
0.00 0.00 0.00 0.00 0.00 0.00 0.00 0.00 0.00 0.00 0.00 0.00 0.00 0.00 0.00 0.00 0.00 0.00 0.00 0.00 0.00 0.00 0.01 0.00 0.00 0.00 0.00 0.00 0.00 0.00 0.00 0.00 0.00 0.00 0.00 0.00 0.00 0.00 0.00 0.00 0.00 0.00 0.00 0.00 0.00 0.00 0.00 0.00 0.00
0.00 0.00 0.00 0.00 0.00 0.00 0.00 0.00 0.00 0.00 0.00 0.00 0.00 0.00 0.00 0.00 0.00 0.00 0.00 0.00 0.01 0.01 0.00 0.00 0.00 0.00 0.00 0.00 0.00 0.00 0.00 0.00 0.00 0.00 0.00 0.00 0.00 0.00 0.00 0.00 0.00 0.00 0.00 0.00 0.00 0.00 0.00 0.00 0.00
0.00 0.00 0.00 0.00 0.00 0.00 0.00 0.00 0.00 0.00 0.00 0.00 0.00 0.00 0.00 0.00 0.00 0.00 0.00 0.01 0.06 0.06 0.01 0.00 0.01 0.00 0.00 0.00 0.00 0.00 0.00 0.00 0.00 0.00 0.00 0.00 0.00 0.00 0.00 0.00 0.00 0.00 0.00 0.00 0.00 0.00 0.00 0.00 0.00
0.00 0.00 0.00 0.00 0.00 0.00 0.00 0.00 0.00 0.00 0.00 0.00 0.00 0.00 0.00 0.00 0.00 0.00 0.00 0.00 0.09 0.07 0.03 0.03 0.04 0.04 0.01 0.01 0.00 0.00 0.00 0.00 0.00 0.00 0.00 0.00 0.00 0.00 0.00 0.00 0.00 0.00 0.00 0.00 0.00 0.00 0.00 0.00 0.00
0.00 0.00 0.00 0.00 0.00 0.00 0.00 0.00 0.00 0.00 0.00 0.00 0.00 0.00 0.00 0.00 0.00 0.00 0.00 0.00 0.06 0.11 0.14 0.05 0.05 0.07 0.05 0.06 0.03 0.02 0.00 0.00 0.00 0.00 0.00 0.00 0.00 0.00 0.00 0.00 0.00 0.00 0.00 0.00 0.00 0.00 0.00 0.00 0.00
0.00 0.00 0.00 0.00 0.00 0.00 0.00 0.00 0.00 0.00 0.00 0.00 0.00 0.00 0.00 0.00 0.00 0.00 0.00 0.00 0.03 0.21 0.55 0.35 0.16 0.08 0.07 0.13 0.08 0.09 0.03 0.00 0.00 0.00 0.00 0.00 0.00 0.00 0.00 0.00 0.00 0.00 0.00 0.00 0.00 0.00 0.00 0.00 0.00
0.00 0.00 0.00 0.00 0.00 0.00 0.00 0.00 0.00 0.00 0.00 0.00 0.00 0.00 0.00 0.00 0.00 0.00 0.00 0.00 0.02 0.20 0.65 0.44 0.39 0.30 0.15 0.16 0.17 0.20 0.15 0.02 0.00 0.00 0.00 0.00 0.00 0.00 0.00 0.00 0.00 0.00 0.00 0.00 0.00 0.00 0.00 0.00 0.00
0.00 0.00 0.00 0.00 0.00 0.00 0.00 0.00 0.00 0.00 0.00 0.00 0.00 0.00 0.00 0.00 0.00 0.00 0.00 0.00 0.10 0.03 0.07 0.18 0.21 0.11 0.06 0.05 0.05 0.10 0.22 0.09 0.01 0.00 0.00 0.00 0.00 0.00 0.00 0.00 0.00 0.00 0.00 0.00 0.00 0.00 0.00 0.00 0.00
0.00 0.00 0.00 0.00 0.00 0.00 0.00 0.00 0.00 0.00 0.00 0.00 0.00 0.00 0.00 0.00 0.00 0.00 0.00 0.00 0.03 0.03 0.09 0.09 0.12 0.09 0.06 0.06 0.02 0.03 0.14 0.21 0.07 0.01 0.00 0.00 0.00 0.00 0.00 0.00 0.00 0.00 0.00 0.00 0.00 0.00 0.00 0.00 0.00
0.00 0.00 0.00 0.00 0.00 0.00 0.00 0.00 0.00 0.00 0.00 0.00 0.00 0.00 0.00 0.00 0.00 0.00 0.00 0.00 0.02 0.04 0.16 0.15 0.04 0.02 0.05 0.06 0.02 0.01 0.02 0.14 0.18 0.04 0.00 0.00 0.00 0.00 0.00 0.00 0.00 0.00 0.00 0.00 0.00 0.00 0.00 0.00 0.00
0.00 0.00 0.00 0.00 0.00 0.00 0.00 0.00 0.00 0.00 0.00 0.00 0.00 0.00 0.00 0.00 0.00 0.00 0.00 0.00 0.02 0.07 0.14 0.09 0.00 0.00 0.00 0.01 0.00 0.00 0.00 0.06 0.23 0.07 0.00 0.00 0.00 0.00 0.00 0.00 0.00 0.00 0.00 0.00 0.00 0.00 0.00 0.00 0.00
0.00 0.00 0.00 0.00 0.00 0.00 0.00 0.00 0.00 0.00 0.00 0.00 0.00 0.00 0.00 0.00 0.00 0.00 0.02 0.04 0.07 0.04 0.03 0.07 0.01 0.00 0.00 0.00 0.00 0.00 0.00 0.01 0.11 0.10 0.00 0.00 0.00 0.00 0.00 0.00 0.00 0.00 0.00 0.00 0.00 0.00 0.00 0.00 0.00
0.00 0.00 0.00 0.00 0.00 0.00 0.00 0.00 0.00 0.00 0.00 0.00 0.00 0.00 0.00 0.00 0.00 0.00 0.03 0.06 0.09 0.07 0.01 0.00 0.00 0.00 0.00 0.00 0.00 0.00 0.01 0.01 0.02 0.06 0.01 0.00 0.00 0.00 0.00 0.00 0.00 0.00 0.00 0.00 0.00 0.00 0.00 0.00 0.00
0.00 0.00 0.00 0.00 0.00 0.00 0.00 0.00 0.00 0.00 0.00 0.00 0.00 0.00 0.00 0.00 0.00 0.00 0.00 0.01 0.03 0.02 0.01 0.00 0.00 0.00 0.00 0.00 0.00 0.00 0.00 0.00 0.01 0.01 0.01 0.00 0.00 0.00 0.00 0.00 0.00 0.00 0.00 0.00 0.00 0.00 0.00 0.00 0.00
0.00 0.00 0.00 0.00 0.00 0.00 0.00 0.00 0.00 0.00 0.00 0.00 0.00 0.00 0.00 0.00 0.00 0.00 0.00 0.00 0.00 0.00 0.00 0.00 0.01 0.01 0.01 0.00 0.00 0.00 0.00 0.00 0.00 0.02 0.00 0.00 0.00 0.00 0.00 0.00 0.00 0.00 0.00 0.00 0.00 0.00 0.00 0.00 0.00
0.00 0.00 0.00 0.00 0.00 0.00 0.00 0.00 0.00 0.00 0.00 0.00 0.00 0.00 0.00 0.00 0.00 0.00 0.00 0.00 0.00 0.00 0.00 0.00 0.00 0.00 0.00 0.00 0.00 0.00 0.00 0.00 0.00 0.00 0.00 0.01 0.00 0.00 0.00 0.00 0.00 0.00 0.00 0.00 0.00 0.00 0.00 0.00 0.00
0.00 0.00 0.00 0.00 0.00 0.00 0.00 0.00 0.00 0.00 0.00 0.00 0.00 0.00 0.00 0.00 0.00 0.00 0.00 0.00 0.00 0.00 0.00 0.00 0.00 0.00 0.00 0.00 0.00 0.00 0.00 0.00 0.00 0.00 0.00 0.00 0.00 0.00 0.00 0.00 0.00 0.00 0.00 0.00 0.00 0.00 0.00 0.00 0.00
0.00 0.00 0.00 0.00 0.00 0.00 0.00 0.00 0.00 0.00 0.00 0.00 0.00 0.00 0.00 0.00 0.00 0.00 0.00 0.00 0.00 0.00 0.00 0.00 0.00 0.00 0.00 0.00 0.00 0.01 0.01 0.00 0.00 0.00 0.00 0.00 0.00 0.00 0.00 0.00 0.00 0.00 0.00 0.00 0.00 0.00 0.00 0.00 0.00
0.00 0.00 0.00 0.00 0.00 0.00 0.00 0.00 0.00 0.00 0.00 0.00 0.00 0.00 0.00 0.00 0.00 0.00 0.00 0.00 0.00 0.00 0.00 0.00 0.00 0.00 0.00 0.00 0.00 0.02 0.01 0.00 0.00 0.00 0.00 0.00 0.00 0.00 0.00 0.00 0.00 0.00 0.00 0.00 0.00 0.00 0.00 0.00 0.00
0.00 0.00 0.00 0.00 0.00 0.00 0.00 0.00 0.00 0.00 0.00 0.00 0.00 0.00 0.00 0.00 0.00 0.00 0.00 0.00 0.00 0.00 0.00 0.00 0.00 0.00 0.00 0.00 0.00 0.00 0.00 0.00 0.01 0.00 0.00 0.00 0.00 0.00 0.01 0.01 0.02 0.01 0.02 0.03 0.03 0.01 0.01 0.00 0.00
0.00 0.00 0.00 0.00 0.00 0.00 0.00 0.00 0.00 0.00 0.00 0.00 0.00 0.00 0.00 0.00 0.00 0.00 0.00 0.00 0.00 0.00 0.00 0.00 0.00 0.00 0.00 0.00 0.00 0.00 0.00 0.00 0.00 0.01 0.00 0.00 0.01 0.00 0.01 0.02 0.04 0.06 0.05 0.03 0.02 0.02 0.01 0.00 0.00
0.00 0.00 0.00 0.00 0.00 0.00 0.00 0.00 0.00 0.00 0.00 0.00 0.00 0.00 0.00 0.00 0.00 0.00 0.00 0.00 0.00 0.00 0.00 0.00 0.00 0.00 0.00 0.00 0.00 0.00 0.00 0.00 0.00 0.00 0.00 0.00 0.00 0.00 0.00 0.00 0.01 0.06 0.05 0.03 0.02 0.01 0.02 0.01 0.01
0.00 0.00 0.00 0.00 0.00 0.00 0.00 0.00 0.00 0.00 0.00 0.00 0.00 0.00 0.00 0.00 0.00 0.00 0.00 0.00 0.00 0.00 0.00 0.00 0.00 0.00 0.00 0.00 0.00 0.00 0.00 0.00 0.00 0.00 0.00 0.00 0.00 0.00 0.00 0.00 0.00 0.01 0.03 0.02 0.01 0.00 0.01 0.01 0.00
0.00 0.00 0.00 0.00 0.00 0.00 0.00 0.00 0.00 0.00 0.00 0.00 0.00 0.00 0.00 0.00 0.00 0.00 0.00 0.00 0.00 0.00 0.00 0.00 0.00 0.00 0.00 0.00 0.00 0.00 0.00 0.00 0.00 0.00 0.00 0.00 0.00 0.00 0.00 0.00 0.00 0.00 0.00 0.00 0.00 0.00 0.00 0.01 0.01
0.00 0.00 0.00 0.00 0.00 0.00 0.00 0.00 0.00 0.00 0.00 0.00 0.00 0.00 0.00 0.00 0.00 0.00 0.00 0.00 0.00 0.00 0.00 0.00 0.00 0.00 0.00 0.00 0.00 0.00 0.00 0.00 0.00 0.00 0.00 0.00 0.00 0.00 0.00 0.00 0.00 0.00 0.00 0.00 0.00 0.00 0.00 0.00 0.01
0.00 0.00 0.00 0.00 0.00 0.00 0.00 0.00 0.00 0.00 0.00 0.00 0.00 0.00 0.00 0.00 0.00 0.00 0.00 0.00 0.00 0.00 0.00 0.00 0.00 0.00 0.00 0.00 0.00 0.00 0.00 0.00 0.00 0.00 0.00 0.00 0.00 0.00 0.00 0.00 0.00 0.00 0.00 0.00 0.00 0.00 0.00 0.00 0.01
0.00 0.00 0.00 0.00 0.00 0.00 0.00 0.00 0.00 0.00 0.00 0.00 0.00 0.00 0.00 0.00 0.00 0.00 0.00 0.00 0.00 0.00 0.00 0.00 0.00 0.00 0.00 0.00 0.00 0.00 0.00 0.00 0.00 0.00 0.00 0.00 0.00 0.00 0.00 0.00 0.00 0.00 0.00 0.00 0.00 0.00 0.00 0.01 0.01
0.00 0.00 0.00 0.00 0.00 0.00 0.00 0.00 0.00 0.00 0.00 0.00 0.00 0.00 0.00 0.00 0.00 0.00 0.00 0.00 0.00 0.00 0.00 0.00 0.00 0.00 0.00 0.00 0.00 0.00 0.00 0.00 0.00 0.00 0.00 0.00 0.00 0.00 0.00 0.00 0.00 0.00 0.00 0.00 0.00 0.00 0.00 0.02 0.02
0.00 0.00 0.00 0.00 0.00 0.00 0.00 0.00 0.00 0.00 0.00 0.00 0.00 0.00 0.00 0.00 0.00 0.00 0.00 0.00 0.00 0.00 0.00 0.00 0.02 0.01 0.01 0.00 0.00 0.00 0.00 0.00 0.00 0.00 0.00 0.00 0.00 0.00 0.00 0.00 0.00 0.00 0.00 0.00 0.02 0.01 0.01 0.02 0.04
0.00 0.00 0.00 0.00 0.00 0.00 0.00 0.00 0.00 0.00 0.00 0.00 0.00 0.00 0.00 0.00 0.00 0.00 0.00 0.00 0.00 0.00 0.00 0.00 0.00 0.00 0.00 0.01 0.01 0.00 0.00 0.00 0.00 0.00 0.00 0.00 0.00 0.00 0.00 0.00 0.00 0.00 0.00 0.01 0.02 0.04 0.05 0.07 0.08
MSLP
1013.08 1013.27 1013.25 1013.09 1013.64 1013.15 1012.69 1012.69 1012.58 1012.17 1011.95 1011.82 1011.99 1012.04 1011.77 1011.68 1011.28 1011.57 1011.64 1011.58 1011.53 1011.44 1011.68 1011.73 1012.12 1012.46 1012.45 1012.84 1013.26 1013.71 1014.19 1014.28 1014.25 1014.86 1014.43 1016.29 1017.25 1017.41 1017.64 1018.14 1018.81 1018.97 1019.24 1019.59 1020.07 1020.53 1020.93 1021.30 1021.76
1013.09 1013.11 1013.26 1013.29 1013.21 1012.72 1012.44 1012.29 1011.97 1011.76 1011.60 1011.93 1012.04 1011.85 1011.80 1011.28 1011.58 1011.57 1011.89 1011.99 1011.96 1011.51 1011.89 1012.15 1012.38 1012.33 1012.61 1012.77 1012.99 1013.62 1014.08 1014.16 1014.55 1014.51 1014.77 1016.18 1017.43 1017.73 1017.86 1018.55 1019.11 1019.38 1019.73 1020.13 1020.57 1020.87 1021.35 1021.64 1021.74
1012.88 1013.01 1013.04 1013.39 1013.26 1012.49 1012.04 1011.70 1011.39 1011.48 1011.56 1011.73 1011.73 1011.81 1011.75 1011.32 1011.63 1011.90 1012.15 1011.98 1012.13 1011.72 1011.94 1011.98 1012.45 1012.57 1012.57 1012.75 1012.96 1013.53 1013.97 1014.38 1014.84 1015.24 1015.47 1016.28 1017.27 1017.77 1018.27 1018.78 1019.35 1019.63 1020.08 1020.46 1020.88 1021.30 1021.70 1021.95 1022.13
1012.71 1013.10 1013.93 1013.39 1012.78 1012.36 1011.73 1011.16 1011.38 1011.24 1011.25 1011.60 1011.68 1011.71 1011.83 1011.81 1011.94 1012.14 1012.31 1012.30 1012.36 1012.03 1011.81 1012.18 1012.14 1012.35 1012.40 1012.80 1013.05 1013.27 1014.06 1014.53 1014.77 1015.50 1015.40 1016.69 1017.02 1017.78 1018.56 1019.14 1019.48 1019.91 1020.37 1020.63 1021.17 1021.69 1022.20 1022.37 1022.49
1012.96 1013.19 1013.18 1013.00 1012.51 1012.00 1011.62 1011.28 1011.27 1011.13 1011.29 1011.59 1011.93 1011.65 1011.72 1011.88 1012.10 1012.31 1012.36 1012.47 1012.61 1012.39 1011.76 1011.89 1012.40 1012.38 1012.36 1012.63 1013.20 1013.64 1014.31 1014.61 1014.98 1015.42 1016.09 1016.27 1017.11 1018.11 1018.84 1019.61 1019.92 1020.18 1020.60 1020.94 1021.65 1022.27 1022.54 1022.75 1022.97
1012.81 1013.34 1013.00 1012.55 1012.17 1011.72 1011.29 1011.12 1011.13 1011.09 1011.24 1011.63 1011.89 1011.77 1011.62 1012.06 1012.11 1012.27 1012.44 1012.59 1012.56 1012.82 1012.11 1011.98 1012.09 1012.22 1012.32 1012.99 1013.38 1013.93 1014.53 1014.85 1015.34 1015.54 1016.42 1016.28 1016.95 1018.38 1019.20 1019.88 1020.43 1020.73 1021.03 1021.47 1022.09 1022.41 1022.81 1023.18 1023.43
1012.35 1012.81 1012.59 1012.48 1012.02 1011.58 1011.00 1011.05 1011.11 1011.09 1011.22 1011.48 1011.71 1011.60 1011.67 1011.88 1012.28 1012.30 1012.34 1012.31 1012.29 1012.54 1012.61 1012.65 1012.22 1012.36 1012.97 1013.60 1014.03 1014.44 1014.55 1015.42 1015.74 1015.98 1016.49 1016.66 1017.03 1018.44 1019.61 1020.23 1020.77 1021.08 1021.40 1021.81 1022.32 1022.72 1023.12 1023.40 1023.83
1012.24 1012.55 1012.41 1012.21 1011.71 1011.06 1010.72 1010.81 1010.72 1010.84 1010.91 1011.62 1011.70 1011.65 1011.67 1011.90 1012.14 1012.21 1012.30 1012.23 1012.24 1012.36 1012.66 1013.11 1013.62 1013.66 1013.74 1014.17 1014.28 1014.81 1015.06 1015.39 1016.18 1016.06 1017.04 1017.05 1017.31 1018.52 1019.92 1020.51 1021.08 1021.30 1021.61 1022.10 1022.52 1023.05 1023.40 1023.94 1024.25
1012.27 1012.29 1011.72 1011.48 1011.22 1010.34 1010.54 1010.68 1010.98 1010.96 1010.92 1011.22 1011.59 1011.96 1012.12 1012.23 1012.17 1012.14 1012.31 1012.39 1012.29 1012.40 1012.64 1013.32 1013.54 1013.86 1014.04 1014.55 1015.13 1015.25 1015.73 1015.74 1016.14 1016.53 1017.16 1017.41 1017.68 1018.77 1020.18 1020.52 1021.12 1021.29 1022.12 1022.18 1022.89 1023.35 1023.80 1024.28 1024.77
1011.68 1011.59 1011.05 1010.60 1010.38 1010.06 1010.20 1010.47 1010.63 1010.83 1010.71 1010.84 1011.48 1012.01 1012.31 1012.35 1012.40 1012.39 1012.34 1012.60 1012.52 1012.51 1012.78 1013.04 1013.34 1013.60 1013.41 1014.46 1014.82 1015.75 1015.84 1016.12 1016.06 1016.56 1017.26 1017.59 1018.22 1019.18 1020.11 1020.81 1021.16 1021.55 1022.13 1022.56 1023.13 1023.82 1024.22 1024.43 1024.70
1011.29 1010.61 1010.40 1010.01 1009.84 1010.02 1010.11 1010.25 1010.33 1010.30 1010.19 1010.12 1010.95 1011.57 1012.26 1012.43 1012.66 1012.66 1012.55 1012.58 1012.58 1012.71 1012.82 1013.24 1013.85 1013.96 1014.10 1014.55 1015.01 1015.68 1016.27 1016.02 1016.11 1017.01 1017.15 1018.19 1018.69 1019.62 1020.39 1021.01 1021.28 1021.90 1022.39 1022.92 1023.22 1024.01 1024.03 1024.40 1024.74
1010.74 1010.04 1009.95 1009.49 1009.57 1009.92 1009.98 1010.04 1010.22 1010.14 1009.49 1010.20 1010.76 1011.50 1012.21 1012.51 1012.65 1012.74 1012.95 1012.92 1012.83 1013.04 1013.15 1013.53 1014.10 1014.38 1014.30 1014.73 1015.32 1015.77 1016.23 1016.37 1016.64 1016.94 1017.68 1018.29 1018.94 1019.82 1020.59 1021.00 1021.19 1021.96 1022.60 1023.04 1023.35 1023.77 1024.19 1024.69 1024.98
1010.13 1009.53 1009.53 1009.18 1009.28 1009.56 1009.88 1009.83 1009.95 1009.54 1009.60 1010.44 1010.95 1011.67 1012.16 1012.52 1012.80 1013.09 1013.27 1013.30 1013.05 1013.29 1013.34 1013.74 1014.09 1014.36 1014.74 1015.12 1015.59 1016.42 1016.90 1017.02 1017.24 1017.18 1017.78 1018.51 1019.08 1020.00 1020.36 1021.27 1021.28 1022.04 1022.78 1023.13 1023.55 1023.56 1024.29 1024.71 1025.01
1009.00 1009.19 1009.11 1008.89 1008.72 1009.06 1009.46 1009.66 1009.96 1008.99 1009.36 1010.31 1010.98 1011.66 1012.19 1012.52 1012.85 1013.21 1013.47 1013.31 1013.30 1013.43 1013.49 1013.92 1014.24 1014.58 1014.89 1015.26 1015.75 1016.43 1016.77 1017.10 1017.20 1017.56 1018.03 1018.34 1019.27 1020.18 1020.59 1021.03 1021.74 1022.35 1022.72 1023.37 1023.28 1023.63 1024.15 1024.80 1025.06
1008.70 1009.08 1008.89 1008.57 1008.44 1008.74 1009.07 1009.25 1008.95 1009.01 1009.51 1010.17 1011.03 1011.49 1011.83 1012.19 1012.77 1013.03 1013.25 1013.28 1013.37 1013.44 1013.67 1013.89 1014.29 1014.64 1015.30 1015.64 1015.91 1016.26 1016.78 1017.32 1017.88 1018.04 1018.25 1018.20 1019.30 1020.13 1020.92 1021.14 1022.06 1022.49 1022.82 1023.28 1023.64 1023.60 1024.26 1024.89 1024.99
1008.81 1009.31 1008.89 1008.29 1008.37 1008.89 1008.75 1008.02 1008.29 1008.83 1009.21 1009.81 1010.72 1011.38 1011.83 1012.01 1012.35 1012.73 1013.00 1013.31 1013.40 1013.59 1013.70 1014.06 1014.33 1014.74 1015.12 1015.63 1016.20 1016.44 1017.03 1017.80 1018.27 1018.56 1018.49 1018.69 1019.59 1020.21 1020.71 1021.41 1021.95 1022.59 1022.83 1023.12 1023.33 1023.52 1024.23 1024.73 1024.91
1008.98 1008.63 1008.72 1008.31 1008.14 1008.53 1008.77 1007.82 1007.93 1008.84 1009.07 1009.41 1010.08 1010.77 1011.40 1011.77 1012.11 1012.46 1012.82 1013.14 1013.37 1013.53 1013.80 1013.95 1014.33 1014.84 1015.32 1015.76 1016.27 1016.68 1017.17 1017.63 1018.06 1018.06 1018.30 1019.13 1019.94 1019.98 1020.43 1021.10 1021.86 1022.53 1022.62 1023.15 1023.41 1023.76 1024.32 1024.82 1024.84
1008.03 1008.52 1008.57 1008.08 1008.22 1008.15 1008.14 1007.29 1007.07 1008.13 1008.59 1008.70 1009.30 1010.07 1010.74 1011.31 1011.61 1012.24 1012.71 1013.18 1013.41 1013.53 1013.70 1013.87 1014.05 1014.68 1015.26 1015.83 1016.35 1016.99 1017.38 1017.70 1017.96 1018.37 1018.33 1019.12 1019.77 1020.12 1020.45 1021.17 1021.64 1021.91 1022.43 1023.29 1023.49 1023.73 1024.39 1024.59 1024.65
1007.82 1008.10 1008.30 1008.25 1008.11 1007.85 1007.37 1007.07 1006.40 1006.94 1007.81 1008.16 1008.64 1009.27 1009.94 1010.68 1011.28 1012.00 1012.49 1012.94 1013.35 1013.45 1013.57 1013.84 1013.93 1014.38 1014.86 1015.64 1016.29 1016.81 1017.25 1017.86 1018.21 1018.23 1018.86 1019.24 1019.77 1020.22 1020.57 1021.11 1021.60 1021.66 1022.17 1022.77 1023.03 1023.75 1024.18 1024.52 1024.76
1008.10 1007.82 1008.12 1008.03 1007.85 1007.77 1006.71 1006.35 1005.86 1006.11 1006.29 1006.81 1007.45 1008.23 1008.93 1009.88 1010.83 1011.51 1012.14 1012.62 1013.00 1013.18 1013.41 1013.68 1013.86 1014.06 1014.69 1015.24 1015.79 1016.38 1017.09 1018.04 1018.37 1018.34 1018.71 1019.11 1019.45 1019.81 1020.38 1020.72 1021.31 1021.60 1022.05 1022.78 1022.92 1023.38 1023.59 1023.79 1024.36
1008.00 1007.66 1007.85 1008.03 1008.02 1007.33 1006.81 1005.98 1005.50 1005.41 1005.78 1006.03 1006.60 1007.03 1007.93 1008.73 1009.89 1010.85 1011.64 1012.08 1012.57 1012.88 1013.08 1013.20 1013.47 1013.95 1014.18 1014.91 1015.48 1016.26 1017.12 1018.57 1018.61 1018.59 1018.73 1018.83 1019.30 1019.67 1020.01 1020.51 1021.20 1021.51 1021.99 1022.42 1022.66 1023.05 1023.12 1023.44 1024.11
1007.56 1007.53 1007.63 1008.08 1008.29 1007.45 1006.94 1005.74 1005.50 1004.95 1004.83 1004.98 1005.36 1005.77 1006.74 1007.76 1008.81 1009.93 1010.80 1011.47 1011.88 1012.24 1012.61 1012.90 1013.11 1013.59 1014.15 1014.70 1015.19 1015.55 1015.96 1017.07 1017.30 1017.83 1018.10 1018.76 1019.13 1019.45 1019.97 1020.35 1020.00 1021.58 1022.17 1022.34 1022.41 1022.52 1022.90 1023.13 1023.36
1006.77 1007.13 1007.54 1007.91 1008.13 1007.92 1007.08 1006.41 1004.73 1004.77 1003.99 1003.68 1003.62 1004.10 1005.26 1006.27 1007.44 1008.56 1009.64 1010.61 1011.32 1012.00 1012.28 1012.53 1013.03 1013.45 1013.93 1014.45 1014.74 1015.35 1015.79 1016.55 1017.00 1017.59 1017.61 1018.57 1019.08 1019.31 1019.09 1019.43 1020.28 1021.11 1021.42 1021.68 1021.84 1022.19 1022.53 1022.74 1022.93
1006.86 1007.26 1007.68 1008.08 1008.24 1007.52 1006.69 1006.20 1004.14 1003.80 1002.96 1002.58 1002.61 1003.00 1004.20 1005.43 1006.54 1007.61 1008.84 1009.95 1010.69 1011.51 1012.17 1012.43 1012.45 1013.02 1013.42 1013.85 1014.21 1014.74 1015.43 1016.19 1016.97 1017.08 1017.45 1018.30 1018.73 1019.01 1019.19 1019.40 1019.82 1020.41 1020.97 1021.07 1021.33 1021.65 1021.78 1022.01 1022.48
1006.63 1006.99 1007.59 1008.03 1007.88 1006.62 1006.38 1005.87 1003.56 1002.74 1002.32 1002.18 1002.06 1002.34 1003.32 1004.47 1005.59 1006.63 1007.71 1008.86 1009.96 1010.72 1011.39 1011.99 1012.22 1012.33 1012.77 1013.33 1013.65 1014.02 1014.54 1015.56 1016.17 1016.66 1016.84 1017.57 1018.15 1018.05 1018.74 1018.99 1019.59 1019.87 1020.06 1020.25 1020.69 1020.86 1021.03 1021.09 1021.56
1005.88 1006.28 1006.65 1006.96 1006.95 1006.52 1006.40 1004.89 1002.91 1002.03 1001.91 1001.84 1001.83 1002.05 1002.56 1003.52 1004.61 1005.30 1006.26 1007.32 1008.48 1009.52 1010.33 1011.05 1011.45 1011.69 1012.07 1012.49 1012.88 1013.48 1014.17 1014.73 1015.23 1015.74 1016.01 1016.54 1017.16 1017.13 1017.52 1018.27 1018.74 1019.08 1019.14 1019.25 1019.64 1019.90 1020.02 1020.21 1020.70
1005.78 1005.99 1006.22 1006.65 1007.10 1006.77 1005.70 1004.54 1002.92 1001.53 1001.41 1001.09 1001.33 1001.41 1001.50 1002.42 1003.54 1004.24 1005.40 1006.38 1007.12 1008.05 1008.88 1009.49 1010.26 1010.88 1011.20 1011.48 1012.22 1012.97 1013.61 1014.15 1014.54 1015.09 1015.74 1016.08 1016.59 1016.83 1017.12 1017.22 1017.76 1017.81 1017.95 1018.30 1018.41 1018.80 1018.76 1019.40 1019.79
1004.57 1005.15 1006.11 1006.66 1006.58 1006.34 1005.39 1004.49 1002.79 1001.59 1000.81 1000.96 1000.90 1000.81 1000.87 1001.41 1003.00 1003.58 1004.32 1005.40 1006.20 1006.89 1007.68 1008.57 1009.08 1009.48 1010.19 1011.05 1011.43 1011.87 1012.49 1013.19 1013.75 1014.28 1014.58 1015.06 1015.55 1016.19 1016.28 1016.40 1016.58 1016.71 1016.90 1017.06 1017.51 1017.87 1018.06 1018.53 1018.94
1004.83 1004.88 1005.31 1005.71 1006.13 1005.74 1005.19 1003.85 1002.26 1001.29 1000.77 1000.83 1000.70 1000.55 1000.62 1000.84 1001.73 1002.90 1003.39 1004.23 1005.33 1006.34 1007.15 1007.65 1008.29 1008.72 1009.39 1009.96 1010.61 1011.01 1011.33 1011.85 1012.67 1013.23 1013.78 1014.25 1014.81 1015.05 1015.28 1015.45 1015.76 1015.94 1016.06 1016.34 1016.69 1016.76 1017.17 1017.61 1017.97
1004.46 1004.71 1005.09 1005.44 1006.12 1005.94 1005.11 1003.14 1001.70 1001.26 1000.85 1000.99 1000.54 1000.37 1000.37 1000.50 1000.97 1001.98 1002.89 1003.54 1004.25 1004.97 1005.81 1006.43 1007.15 1007.75 1007.93 1008.51 1009.26 1009.94 1010.59 1011.15 1011.49 1011.82 1012.18 1012.76 1013.15 1013.73 1014.01 1014.44 1014.82 1014.99 1015.30 1015.67 1015.76 1015.58 1015.97 1016.44 1017.12
Thickness
5705 5702 5699 5695 5679 5672 5664 5667 5663 5666 5669 5675 5672 5667 5669 5667 5669 5668 5679 5682 5684 5684 5684 5686 5686 5685 5687 5684 5683 5686 5684 5688 5694 5692 5698 5687 5682 5684 5685 5683 5677 5679 5679 5678 5675 5672 5671 5668 5665
5701 5699 5693 5680 5671 5663 5665 5662 5663 5670 5674 5672 5669 5669 5666 5670 5671 5672 5672 5675 5676 5679 5676 5677 5680 5683 5681 5682 5685 5683 5680 5685 5685 5692 5693 5684 5677 5678 5679 5675 5671 5672 5672 5670 5668 5667 5665 5663 5664
5699 5694 5685 5669 5655 5662 5661 5664 5673 5672 5674 5670 5668 5669 5667 5669 5669 5665 5667 5672 5669 5673 5671 5674 5674 5676 5679 5680 5683 5680 5679 5680 5680 5679 5681 5677 5675 5675 5672 5670 5667 5667 5666 5664 5663 5661 5659 5660 5659
5693 5685 5671 5666 5661 5664 5667 5676 5670 5671 5674 5671 5667 5663 5666 5667 5664 5664 5663 5664 5660 5664 5668 5668 5672 5673 5677 5676 5676 5679 5676 5676 5678 5674 5678 5672 5673 5671 5668 5664 5662 5661 5659 5659 5655 5654 5652 5652 5653
5686 5675 5662 5657 5658 5662 5666 5670 5669 5669 5666 5663 5661 5662 5661 5665 5662 5660 5657 5655 5652 5655 5662 5663 5661 5665 5669 5671 5669 5669 5669 5673 5673 5671 5669 5672 5670 5665 5661 5654 5655 5655 5655 5653 5648 5646 5645 5645 5645
5676 5666 5656 5657 5656 5662 5668 5670 5669 5667 5666 5659 5656 5656 5662 5659 5657 5655 5652 5648 5647 5646 5653 5652 5656 5657 5662 5660 5660 5661 5662 5663 5665 5667 5661 5666 5667 5659 5653 5649 5645 5646 5646 5644 5642 5642 5640 5639 5638
5671 5661 5655 5649 5652 5656 5665 5668 5663 5662 5660 5657 5657 5652 5657 5654 5651 5650 5648 5646 5646 5642 5639 5638 5646 5646 5646 5645 5645 5649 5652 5649 5653 5657 5655 5658 5663 5654 5646 5643 5640 5640 5639 5638 5637 5637 5635 5635 5631
5670 5661 5646 5648 5652 5658 5667 5665 5667 5663 5662 5657 5655 5650 5651 5650 5650 5647 5643 5644 5642 5640 5637 5632 5630 5629 5638 5629 5639 5639 5640 5641 5640 5648 5645 5650 5654 5650 5641 5638 5634 5633 5633 5632 5632 5630 5629 5626 5624
5665 5654 5652 5654 5651 5666 5666 5662 5660 5662 5660 5656 5654 5647 5647 5646 5646 5644 5638 5636 5637 5636 5634 5627 5618 5624 5626 5631 5628 5630 5627 5628 5634 5638 5637 5641 5644 5644 5634 5634 5631 5631 5625 5628 5624 5623 5622 5620 5615
5664 5654 5658 5666 5667 5667 5666 5662 5661 5658 5657 5655 5650 5647 5644 5642 5640 5637 5634 5629 5631 5631 5627 5627 5622 5624 5626 5626 5625 5617 5623 5623 5631 5632 5630 5634 5636 5634 5631 5629 5629 5627 5623 5621 5619 5616 5615 5612 5610
5658 5661 5663 5669 5671 5668 5663 5658 5664 5660 5657 5661 5653 5647 5639 5636 5630 5630 5628 5626 5627 5629 5628 5625 5620 5620 5621 5618 5618 5614 5615 5621 5626 5622 5626 5624 5627 5625 5624 5622 5623 5620 5618 5613 5613 5609 5611 5609 5606
5657 5665 5666 5673 5670 5663 5660 5661 5657 5660 5670 5661 5656 5647 5637 5630 5626 5624 5618 5617 5619 5622 5625 5623 5617 5615 5617 5614 5609 5609 5606 5611 5614 5617 5616 5618 5621 5618 5616 5617 5620 5614 5610 5609 5609 5608 5607 5602 5600
5657 5664 5665 5670 5668 5663 5659 5659 5660 5662 5666 5656 5651 5644 5635 5628 5624 5619 5614 5611 5614 5616 5620 5619 5618 5615 5611 5607 5601 5599 5597 5601 5606 5610 5612 5612 5615 5611 5614 5611 5615 5609 5604 5602 5604 5606 5598 5596 5595
5668 5663 5666 5668 5670 5666 5658 5656 5656 5668 5667 5654 5648 5641 5633 5626 5622 5616 5611 5611 5613 5615 5617 5616 5614 5611 5608 5604 5600 5597 5595 5598 5604 5606 5607 5609 5608 5606 5606 5607 5606 5601 5600 5596 5601 5600 5595 5590 5590
5665 5656 5659 5664 5668 5664 5660 5657 5656 5666 5663 5654 5645 5641 5636 5630 5622 5618 5615 5613 5613 5614 5612 5612 5612 5609 5605 5600 5598 5596 5594 5597 5598 5600 5604 5610 5606 5602 5599 5602 5596 5594 5593 5592 5593 5596 5590 5585 5586
5653 5646 5645 5660 5660 5656 5661 5658 5666 5663 5661 5656 5646 5637 5634 5630 5627 5622 5618 5614 5613 5610 5611 5610 5609 5609 5604 5601 5597 5595 5593 5591 5593 5592 5599 5603 5599 5598 5598 5595 5591 5588 5587 5589 5590 5590 5585 5581 5582
5637 5642 5638 5648 5659 5654 5653 5659 5665 5655 5658 5656 5650 5643 5637 5633 5628 5625 5621 5618 5614 5612 5609 5609 5608 5606 5603 5599 5596 5592 5591 5589 5592 5597 5600 5598 5595 5598 5596 5592 5587 5582 5584 5584 5583 5583 5579 5575 5578
5639 5632 5631 5644 5651 5652 5649 5659 5670 5658 5656 5657 5654 5646 5640 5635 5631 5627 5622 5617 5613 5612 5610 5608 5607 5603 5601 5596 5593 5589 5588 5587 5591 5593 5597 5594 5591 5593 5593 5588 5586 5585 5583 5578 5577 5578 5574 5573 5575
5644 5635 5634 5639 5646 5648 5650 5653 5668 5665 5655 5656 5655 5649 5644 5637 5634 5627 5623 5619 5614 5610 5609 5604 5601 5597 5598 5596 5592 5592 5589 5587 5590 5592 5590 5591 5588 5587 5586 5583 5582 5585 5582 5578 5578 5573 5570 5569 5568
5635 5635 5635 5639 5641 5641 5656 5655 5667 5665 5666 5664 5662 5654 5651 5642 5634 5628 5623 5619 5615 5612 5607 5600 5590 5591 5594 5597 5595 5594 5590 5582 5584 5586 5587 5588 5586 5584 5582 5582 5579 5579 5578 5574 5574 5571 5571 5573 5570
5631 5635 5632 5633 5630 5640 5644 5651 5661 5667 5662 5663 5662 5663 5656 5650 5640 5631 5625 5622 5617 5612 5610 5606 5599 5594 5599 5597 5595 5590 5585 5576 5579 5582 5583 5584 5583 5580 5580 5578 5575 5575 5573 5571 5571 5570 5572 5572 5569
5622 5634 5633 5625 5619 5622 5640 5633 5650 5665 5667 5667 5669 5665 5659 5654 5649 5638 5631 5625 5622 5618 5614 5610 5608 5605 5600 5594 5592 5593 5595 5586 5587 5583 5584 5581 5579 5578 5575 5575 5580 5569 5567 5567 5569 5570 5569 5570 5570
5634 5632 5627 5624 5616 5617 5626 5628 5652 5650 5661 5674 5682 5679 5668 5663 5658 5650 5639 5632 5626 5620 5617 5614 5611 5606 5602 5597 5595 5593 5591 5584 5582 5579 5582 5578 5574 5574 5579 5577 5571 5567 5568 5567 5569 5569 5568 5569 5570
5628 5623 5618 5610 5609 5608 5626 5629 5649 5653 5665 5676 5682 5685 5673 5666 5661 5656 5646 5636 5630 5623 5617 5615 5617 5612 5607 5603 5602 5597 5593 5584 5577 5580 5581 5575 5574 5573 5574 5574 5572 5568 5566 5568 5568 5566 5570 5571 5568
5621 5613 5601 5597 5599 5617 5620 5618 5653 5666 5669 5673 5681 5687 5679 5671 5666 5661 5652 5643 5634 5627 5622 5617 5617 5616 5613 5609 5607 5604 5599 5589 5584 5580 5582 5577 5576 5581 5575 5574 5572 5571 5570 5570 5567 5569 5571 5574 5571
5616 5619 5605 5596 5602 5619 5611 5618 5655 5673 5673 5673 5678 5681 5682 5675 5670 5669 5663 5656 5646 5637 5631 5625 5622 5620 5618 5615 5612 5606 5600 5596 5593 5590 5590 5587 5582 5585 5582 5575 5573 5573 5574 5575 5572 5573 5575 5575 5572
5603 5600 5620 5599 5587 5596 5613 5627 5657 5674 5672 5677 5676 5680 5686 5683 5674 5673 5666 5660 5656 5648 5641 5636 5630 5625 5622 5621 5616 5609 5604 5599 5597 5595 5592 5589 5586 5585 5582 5583 5579 5578 5580 5577 5577 5574 5578 5573 5570
5613 5616 5598 5589 5590 5591 5603 5611 5640 5659 5670 5672 5675 5679 5684 5686 5673 5674 5671 5663 5659 5654 5649 5641 5636 5633 5627 5620 5619 5617 5612 5607 5603 5599 5597 5594 5588 5583 5585 5586 5585 5585 5583 5582 5577 5577 5577 5573 5571
5601 5603 5603 5607 5595 5598 5596 5615 5648 5659 5667 5669 5674 5678 5681 5686 5681 5673 5674 5669 5661 5654 5648 5645 5639 5636 5630 5625 5620 5619 5618 5614 5607 5603 5597 5593 5589 5588 5588 5588 5586 5585 5583 5581 5579 5580 5576 5573 5569
5603 5601 5603 5591 5588 5584 5589 5615 5652 5656 5662 5662 5671 5677 5682 5684 5683 5677 5672 5670 5665 5660 5654 5651 5645 5640 5639 5633 5627 5622 5618 5613 5611 5609 5606 5602 5599 5594 5592 5588 5585 5584 5582 5579 5578 5580 5577 5572 5565